| time (UTC) | temp C | wind direction | speed KPH | gust KPH | rain 1hr cm | rain 24hr cm | rain mn cm | humidity % | barometer mb |
| 20260508193104 | 18 | 207 | 1.6 | 8.0 | 0.00 | 0.10 | 0.00 | 47 | 1005.6 |
| 20260508191556 | 18 | 114 | 0.0 | 3.2 | 0.00 | 0.10 | 0.00 | 50 | 1005.8 |
| 20260508190052 | 18 | 208 | 0.0 | 6.4 | 0.00 | 0.10 | 0.00 | 48 | 1006.1 |
| 20260508184556 | 18 | 81 | 0.0 | 1.6 | 0.00 | 0.10 | 0.00 | 52 | 1006.1 |
| 20260508183051 | 18 | 0 | 0.0 | 3.2 | 0.00 | 0.10 | 0.00 | 52 | 1006.5 |
| 20260508181556 | 18 | 0 | 0.0 | 6.4 | 0.00 | 0.10 | 0.00 | 51 | 1006.7 |
| 20260508180057 | 18 | 123 | 1.6 | 11.3 | 0.00 | 0.10 | 0.00 | 53 | 1006.7 |
| 20260508174611 | 18 | 131 | 0.0 | 4.8 | 0.00 | 0.10 | 0.00 | 56 | 1006.9 |
| 20260508173056 | 18 | 94 | 1.6 | 6.4 | 0.00 | 0.10 | 0.00 | 57 | 1007.2 |
| 20260508171552 | 18 | 128 | 0.0 | 3.2 | 0.00 | 0.10 | 0.00 | 60 | 1007.5 |
| 20260508170056 | 17 | 80 | 0.0 | 4.8 | 0.00 | 0.10 | 0.00 | 61 | 1007.8 |
| 20260508164555 | 16 | 0 | 0.0 | 3.2 | 0.00 | 0.10 | 0.00 | 63 | 1008.0 |
| 20260508163058 | 16 | 150 | 0.0 | 4.8 | 0.00 | 0.10 | 0.00 | 62 | 1008.2 |
| 20260508161553 | 16 | 79 | 0.0 | 4.8 | 0.00 | 0.10 | 0.00 | 60 | 1008.4 |
| 20260508160054 | 16 | 0 | 0.0 | 4.8 | 0.00 | 0.10 | 0.00 | 59 | 1008.5 |
| 20260508154554 | 16 | 0 | 0.0 | 3.2 | 0.00 | 0.10 | 0.00 | 61 | 1008.6 |
| 20260508153053 | 15 | 82 | 0.0 | 3.2 | 0.00 | 0.10 | 0.00 | 62 | 1008.7 |
| 20260508151556 | 15 | 0 | 0.0 | 3.2 | 0.00 | 0.10 | 0.00 | 60 | 1008.8 |
| 20260508150051 | 14 | 0 | 0.0 | 3.2 | 0.00 | 0.10 | 0.00 | 60 | 1008.9 |
| 20260508144552 | 13 | 96 | 0.0 | 1.6 | 0.00 | 0.10 | 0.00 | 64 | 1009.0 |
| 20260508143056 | 12 | 0 | 0.0 | 3.2 | 0.00 | 0.10 | 0.00 | 69 | 1009.0 |
| 20260508141551 | 12 | 0 | 0.0 | 1.6 | 0.00 | 0.10 | 0.00 | 68 | 1009.0 |
| 20260508140058 | 11 | 0 | 0.0 | 6.4 | 0.00 | 0.10 | 0.00 | 73 | 1009.2 |
| 20260508134554 | 11 | 0 | 0.0 | 6.4 | 0.00 | 0.10 | 0.00 | 76 | 1009.1 |
| 20260508133057 | 10 | 0 | 0.0 | 0.0 | 0.00 | 0.10 | 0.00 | 79 | 1009.0 |
| 20260508131556 | 9 | 0 | 0.0 | 0.0 | 0.00 | 0.10 | 0.00 | 81 | 1009.0 |
| 20260508130106 | 8 | 0 | 0.0 | 1.6 | 0.00 | 0.10 | 0.00 | 83 | 1009.0 |
| 20260508124555 | 7 | 0 | 0.0 | 0.0 | 0.00 | 0.10 | 0.00 | 85 | 1009.1 |
| 20260508123100 | 7 | 0 | 0.0 | 0.0 | 0.00 | 0.10 | 0.00 | 87 | 1009.4 |
| 20260508121624 | 6 | 0 | 0.0 | 0.0 | 0.00 | 0.10 | 0.00 | 87 | 1009.0 |
| 20260508120056 | 6 | 0 | 0.0 | 0.0 | 0.00 | 0.10 | 0.00 | 88 | 1009.3 |
| 20260508114553 | 6 | 0 | 0.0 | 0.0 | 0.00 | 0.10 | 0.00 | 89 | 1009.2 |
| 20260508113051 | 6 | 0 | 0.0 | 0.0 | 0.00 | 0.10 | 0.00 | 89 | 1009.0 |
| 20260508111552 | 5 | 0 | 0.0 | 0.0 | 0.00 | 0.10 | 0.00 | 89 | 1008.8 |
| 20260508110055 | 5 | 0 | 0.0 | 0.0 | 0.00 | 0.10 | 0.00 | 89 | 1008.9 |
| 20260508104600 | 5 | 0 | 0.0 | 0.0 | 0.00 | 0.10 | 0.00 | 88 | 1008.9 |
| 20260508103052 | 5 | 0 | 0.0 | 0.0 | 0.00 | 0.10 | 0.00 | 88 | 1009.0 |
| 20260508101549 | 4 | 0 | 0.0 | 0.0 | 0.00 | 0.10 | 0.00 | 88 | 1008.8 |
| 20260508100052 | 4 | 0 | 0.0 | 0.0 | 0.00 | 0.10 | 0.00 | 87 | 1009.0 |
| 20260508094551 | 4 | 0 | 0.0 | 0.0 | 0.00 | 0.10 | 0.00 | 87 | 1009.1 |
| 20260508093055 | 4 | 0 | 0.0 | 0.0 | 0.00 | 0.10 | 0.00 | 86 | 1009.1 |
| 20260508091601 | 5 | 0 | 0.0 | 0.0 | 0.00 | 0.10 | 0.00 | 86 | 1009.1 |
| 20260508090108 | 5 | 0 | 0.0 | 0.0 | 0.00 | 0.10 | 0.00 | 86 | 1009.1 |
| 20260508084554 | 5 | 0 | 0.0 | 0.0 | 0.00 | 0.10 | 0.00 | 86 | 1009.2 |
| 20260508083052 | 5 | 0 | 0.0 | 0.0 | 0.00 | 0.10 | 0.00 | 85 | 1009.3 |
| 20260508081607 | 5 | 0 | 0.0 | 0.0 | 0.00 | 0.10 | 0.00 | 85 | 1009.4 |
| 20260508080055 | 6 | 0 | 0.0 | 0.0 | 0.00 | 0.10 | 0.00 | 85 | 1009.5 |
| 20260508074552 | 6 | 0 | 0.0 | 0.0 | 0.00 | 0.10 | 0.00 | 84 | 1009.6 |
| 20260508073100 | 6 | 0 | 0.0 | 0.0 | 0.00 | 0.10 | 0.00 | 83 | 1009.7 |
| 20260508071618 | 7 | 0 | 0.0 | 0.0 | 0.00 | 0.10 | 0.00 | 82 | 1009.7 |
| 20260508070101 | 7 | 0 | 0.0 | 0.0 | 0.00 | 0.10 | 0.00 | 81 | 1009.7 |
| 20260508064549 | 7 | 0 | 0.0 | 0.0 | 0.00 | 0.10 | 0.00 | 80 | 1009.6 |
| 20260508063051 | 8 | 0 | 0.0 | 0.0 | 0.00 | 0.10 | 0.00 | 79 | 1009.5 |
| 20260508061552 | 8 | 0 | 0.0 | 1.6 | 0.00 | 0.10 | 0.00 | 78 | 1009.5 |
| 20260508060053 | 8 | 0 | 0.0 | 0.0 | 0.00 | 0.10 | 0.00 | 78 | 1009.5 |
| 20260508054554 | 8 | 0 | 0.0 | 0.0 | 0.00 | 0.10 | 0.00 | 77 | 1009.4 |
| 20260508053054 | 9 | 0 | 0.0 | 0.0 | 0.00 | 0.10 | 0.00 | 76 | 1009.4 |
| 20260508051552 | 9 | 0 | 0.0 | 0.0 | 0.00 | 0.10 | 0.00 | 76 | 1009.3 |
| 20260508050054 | 10 | 0 | 0.0 | 0.0 | 0.00 | 0.10 | 0.00 | 74 | 1009.3 |
| 20260508044600 | 10 | 0 | 0.0 | 1.6 | 0.00 | 0.10 | 0.10 | 73 | 1009.3 |
| 20260508043056 | 10 | 0 | 0.0 | 1.6 | 0.00 | 0.10 | 0.10 | 74 | 1009.2 |
| 20260508041552 | 9 | 0 | 0.0 | 0.0 | 0.00 | 0.10 | 0.10 | 74 | 1009.0 |
| 20260508040055 | 9 | 0 | 0.0 | 3.2 | 0.00 | 0.10 | 0.10 | 76 | 1009.0 |
| 20260508034552 | 8 | 0 | 0.0 | 0.0 | 0.00 | 0.10 | 0.10 | 78 | 1009.0 |
| 20260508033115 | 8 | 0 | 0.0 | 0.0 | 0.00 | 0.10 | 0.10 | 78 | 1008.9 |
| 20260508031554 | 9 | 0 | 0.0 | 0.0 | 0.00 | 0.10 | 0.10 | 78 | 1008.8 |
| 20260508030111 | 9 | 0 | 0.0 | 0.0 | 0.00 | 0.10 | 0.10 | 78 | 1008.8 |
| 20260508024620 | 9 | 0 | 0.0 | 0.0 | 0.00 | 0.10 | 0.10 | 77 | 1008.7 |
| 20260508023054 | 10 | 0 | 0.0 | 0.0 | 0.00 | 0.10 | 0.10 | 77 | 1008.5 |
| 20260508021600 | 10 | 0 | 0.0 | 0.0 | 0.00 | 0.10 | 0.10 | 77 | 1008.5 |
| 20260508020111 | 10 | 0 | 0.0 | 1.6 | 0.00 | 0.10 | 0.10 | 77 | 1008.3 |
| 20260508014613 | 10 | 0 | 0.0 | 4.8 | 0.00 | 0.10 | 0.10 | 77 | 1008.2 |
| 20260508013108 | 11 | 159 | 0.0 | 1.6 | 0.00 | 0.10 | 0.10 | 77 | 1008.0 |
| 20260508011605 | 11 | 0 | 0.0 | 0.0 | 0.00 | 0.10 | 0.10 | 75 | 1007.9 |
| 20260508010115 | 11 | 0 | 0.0 | 0.0 | 0.00 | 0.10 | 0.10 | 72 | 1007.7 |
| 20260508004553 | 12 | 0 | 0.0 | 0.0 | 0.00 | 0.10 | 0.10 | 70 | 1007.7 |
| 20260508003105 | 12 | 0 | 0.0 | 1.6 | 0.00 | 0.10 | 0.10 | 68 | 1007.8 |
| 20260508001556 | 13 | 0 | 0.0 | 0.0 | 0.00 | 0.10 | 0.10 | 68 | 1007.7 |
| 20260508000056 | 13 | 0 | 0.0 | 0.0 | 0.00 | 0.10 | 0.10 | 69 | 1007.7 |
| 20260507234551 | 12 | 0 | 0.0 | 0.0 | 0.00 | 0.10 | 0.10 | 71 | 1007.7 |
| 20260507233056 | 12 | 0 | 0.0 | 3.2 | 0.00 | 0.10 | 0.10 | 71 | 1007.7 |
| 20260507231557 | 12 | 0 | 0.0 | 1.6 | 0.03 | 0.10 | 0.10 | 71 | 1008.0 |
| 20260507230055 | 12 | 0 | 0.0 | 1.6 | 0.05 | 0.10 | 0.10 | 73 | 1007.8 |
| 20260507224554 | 12 | 0 | 0.0 | 1.6 | 0.10 | 0.10 | 0.10 | 69 | 1008.3 |
| 20260507223051 | 11 | 281 | 0.0 | 3.2 | 0.10 | 0.10 | 0.10 | 72 | 1008.4 |
| 20260507221551 | 10 | 270 | 0.0 | 9.7 | 0.08 | 0.08 | 0.08 | 76 | 1008.7 |
| 20260507220055 | 11 | 313 | 1.6 | 9.7 | 0.03 | 0.03 | 0.03 | 70 | 1008.8 |
| 20260507214558 | 14 | 315 | 3.2 | 9.7 | 0.00 | 0.00 | 0.00 | 52 | 1008.3 |
| 20260507213058 | 15 | 271 | 1.6 | 14.5 | 0.00 | 0.00 | 0.00 | 49 | 1007.8 |
| 20260507211553 | 15 | 257 | 1.6 | 14.5 | 0.00 | 0.00 | 0.00 | 47 | 1007.8 |
| 20260507210058 | 15 | 289 | 1.6 | 12.9 | 0.00 | 0.00 | 0.00 | 46 | 1007.9 |
| 20260507204548 | 15 | 226 | 1.6 | 6.4 | 0.00 | 0.00 | 0.00 | 51 | 1007.9 |
| 20260507203048 | 15 | 11 | 4.8 | 16.1 | 0.00 | 0.00 | 0.00 | 52 | 1008.1 |
| 20260507201552 | 14 | 255 | 3.2 | 16.1 | 0.00 | 0.00 | 0.00 | 52 | 1008.5 |
| 20260507200055 | 13 | 294 | 3.2 | 17.7 | 0.00 | 0.00 | 0.00 | 54 | 1008.7 |
| 20260507194613 | 14 | 210 | 4.8 | 12.9 | 0.00 | 0.00 | 0.00 | 52 | 1009.1 |